{"data":{"norad_id":65571,"epoch":"2026-05-25T02:00:16.694784Z","epoch_age_seconds":77894,"freshness":"FRESH","line1":"1 65571U 25203G   26145.08352656  .00000090  00000+0  70393-4 0  9993","line2":"2 65571  81.3024  32.1960 0005023 263.3790  96.6794 13.83813638 35491","mean_motion":13.83813638,"eccentricity":0.0005023,"inclination_deg":81.3024,"raan_deg":32.196,"arg_perigee_deg":263.379,"mean_anomaly_deg":96.6794,"bstar":7.0393e-5,"rev_number":3549,"period_min":104.0602549691,"perigee_km":946.71019884055,"apogee_km":954.07243838943,"semimajor_km":7328.528318615,"source":"CELESTRAK","updated_at":"2026-05-25T13:38:25.168806Z"}}